Other Public Products
Issued by NWS Grand Forks, ND

Home | Current Version | Previous Version | Graphics & Text | Print | Product List | Glossary On
Versions: 1 2 3 4 5 6 7 8 9 10 11 12 13 14 15 16 17 18 19 20 21 22 23 24 25 26 27 28 29 30 31 32 33 34 35 36 37 38 39 40 41 42 43 44 45 46 47 48 49 50
000
FPUS83 KFGF 010010
OPUFGF
PRAIRIE TO PINES WEATHER ROUNDUP
NATIONAL WEATHER SERVICE EASTERN NORTH DAKOTA/GRAND FORKS ND
600 PM CST SAT JAN 31 2015

 **SATELLITE DATA USED TO AUGMENT SKY COVER AT AUTOMATED STATIONS**
 *****  WEATHER ACROSS EASTERN NORTH DAKOTA  *****

CITY           SKY/WX    TMP DP  RH WIND       PRES   REMARKS
GRAND FORKS    MOCLDY    -4 -12  68 N18G24    30.47R WCI -26
6HR MIN TEMP:  -4; 6HR MAX TEMP:   3;

GRAND FORKS AF MOCLDY    -5 -13  68 N21       30.48R WCI -29
GRAND CITY NWS   N/A     -4 N/A N/A VRB20       N/A  WCI -27
BUXTON         NOT AVBL
DEVILS LAKE    PTCLDY    -6 -17  59 N16       30.41S WCI -28
6HR MIN TEMP:  -6; 6HR MAX TEMP:   0;

FARGO          CLOUDY     7  -7  52 N22G28    30.38R WCI -14
6HR MIN TEMP:   7; 6HR MAX TEMP:  14;

WAHPETON ARPT  CLOUDY    12   0  57 N20G26    30.30S WCI  -6
$$

 *****  WEATHER ACROSS CENTRAL AND WESTERN NORTH DAKOTA  *****

CITY           SKY/WX    TMP DP  RH WIND       PRES   REMARKS
JAMESTOWN      CLOUDY     3  -7  63 NE21      30.33R WCI -18
6HR MIN TEMP:   3; 6HR MAX TEMP:  12;

BISMARCK       LGT SNOW   6   0  76 NE15      30.34R WCI -12
6HR MIN TEMP:   7; 6HR MAX TEMP:  16; 6HR PCP: TRACE;

MINOT          CLOUDY    -1  -9  68 N17       30.43R WCI -22
6HR MIN TEMP:  -1; 6HR MAX TEMP:   4; 6HR PCP: TRACE;

MINOT AFB      MOCLDY    -3  -9  75 N16       30.45R WCI -24
6HR MIN TEMP:  -3; 6HR MAX TEMP:   4; 6HR PCP: TRACE;

GARRISON         N/A      0  -6  76 NE9G18    30.37R WCI -15
6HR MIN TEMP:  -1; 6HR MAX TEMP:   8; 6HR PCP:  0.10;

WILLISTON      LGT SNOW   3  -2  78 NE15      30.39R WCI -15
6HR MIN TEMP:   3; 6HR MAX TEMP:  10; 6HR PCP:  0.09;

DICKINSON      SNOW       7   2  80 NE21      30.21R VSB 1/2 WCI -13
6HR MIN TEMP:   7; 6HR MAX TEMP:  17; 6HR PCP: TRACE;

HETTINGER      LGT SNOW  12   9  87 NE14      30.15R FOG     WCI  -3
6HR MIN TEMP:  12; 6HR MAX TEMP:  18; 6HR PCP: TRACE;

$$

 *****  OTHER OBSERVATIONS NORTHEAST NORTH DAKOTA  *****

CITY           SKY/WX    TMP DP  RH WIND       PRES   REMARKS
WALHALLA         N/A     -8 -17  65 N15G21    30.56R WCI -29
LANGDON        NOT AVBL
CAVALIER       FAIR      -8 -13  77 N15G23    30.54R WCI -29
GRAFTON        NOT AVBL
CANDO          CLOUDY    -8 -18  59 NE13G20   30.47R WCI -28
FORT TOTTEN      N/A     -5 -18  54 N7        29.95S WCI -19
ROLLA          FAIR      -9 -17  70 N16       30.44R WCI -32
RUGBY          FAIR      -6 -17  59 NE16      30.46R WCI -28
 ***** THE ABOVE OBSERVATIONS ARE NON NWS ARE NOT QUALITY
        CONTROLLED AND MAY MIS-REPORT RAIN FOR SNOW...
$$

 *****  OTHER OBSERVATIONS SOUTHEAST NORTH DAKOTA *****

CITY           SKY/WX    TMP DP  RH WIND       PRES   REMARKS
COOPERSTOWN    NOT AVBL
VALLEY CITY    FLURRIES   0  -8  71 NE17G24   30.35S WCI -21
OAKES            N/A      7  -2  66 N23G29    30.29S WCI -14
GWINNER        PTCLDY     9  -4  56 N23       30.30F WCI -12
SHEYENNE NWR     N/A      5  -7  58 N16       29.95  WCI -14
BUFFALO        NOT AVBL
WYNDMERE         N/A      9  -2  61 N15         N/A  WCI  -8
 ***** THE ABOVE OBSERVATIONS ARE NON NWS ARE NOT QUALITY
       CONTROLLED AND MAY MIS-REPORT RAIN FOR SNOW...
$$

  *****  WEATHER ACROSS NORTHERN MINNESOTA  *****

CITY           SKY/WX    TMP DP  RH WIND       PRES   REMARKS
FLAG ISLAND    PTCLDY    -6 -15  65 N8        30.46R WCI -21
WARROAD        PTCLDY    -2 -13  60 NE10      30.45R WCI -19
ROSEAU         MOCLDY    -2 -11  65 N7        30.46R WCI -16
HALLOCK        PTCLDY    -8 -17  65 N14       30.50S WCI -28
THF RVR FALLS  PTCLDY     1  -9  60 N14       30.40R WCI -17
6HR MIN TEMP:   1; 6HR MAX TEMP:   3;

HALSTAD          N/A      4 -11  49 N17         N/A  WCI -15
FOSSTON        MOCLDY     3  -2  78 N13       30.36R WCI -14
BAUDETTE       MOCLDY    -4 -13  65 N8        30.42R WCI -19
6HR MIN TEMP:  -4; 6HR MAX TEMP:   1;

WASKISH        MOCLDY    -2  -9  71 N8        30.39R WCI -17
CROOKSTON      PTCLDY     3  -9  55 NE14G20   30.45R WCI -15
$$
  *****  WEATHER ACROSS CENTRAL AND WEST MINNESOTA  *****

CITY           SKY/WX    TMP DP  RH WIND       PRES   REMARKS
BEMIDJI        MOCLDY     2  -6  69 N9        30.34R WCI -12
PARK RAPIDS    PTCLDY    10  -3  55 NE8       30.29R WCI  -2
6HR MIN TEMP:  10; 6HR MAX TEMP:  18;

WADENA         MOCLDY    14  -4  44 NE9       30.26R WCI   2
DETROIT LAKES  CLOUDY    14  -2  48 NE10      30.30R WCI   1
MOORHEAD       CLOUDY     9  -2  61 N17G23    30.37R WCI -10
FERGUS FALLS   CLOUDY    14   0  52 N13       30.30S WCI   0
ELBOW LAKE     CLOUDY    19   1  46 N13G18    30.22F WCI   6
MORRIS MN      CLOUDY    25   7  46 NE15      30.19F WCI  12
STAPLES        MOCLDY    12  -2  52 N7        30.26R WCI   2
WHEATON        CLOUDY    12   3  67 N17G24    30.27S WCI  -5
$$
  *****  WEATHER ELSEWHERE ACROSS MINNESOTA  *****

CITY           SKY/WX    TMP DP  RH WIND       PRES   REMARKS
DULUTH         PTCLDY    13  -2  51 N9        30.26R WCI   1
6HR MIN TEMP:  13; 6HR MAX TEMP:  20;

INTRNTL FALLS  PTCLDY    -1 -12  59 N6        30.40R WCI -13
6HR MIN TEMP:  -1; 6HR MAX TEMP:   6;

ELY            CLEAR      1  -8  66 N3        30.32R
CLOQUET        PTCLDY    14  -6  41 N6        30.28R WCI   5
BRAINERD       PTCLDY    18   3  52 N10       30.26R WCI   6
6HR MIN TEMP:  18; 6HR MAX TEMP:  24;

HIBBING        PTCLDY     9  -8  46 N8        30.31R WCI  -3
6HR MIN TEMP:   9; 6HR MAX TEMP:  16;

ALEXANDRIA     CLOUDY    21  -1  38 NE13      30.20F WCI   9
6HR MIN TEMP:  21; 6HR MAX TEMP:  25;

SAINT CLOUD    CLOUDY    24   8  50 N10       30.21R WCI  14
6HR MIN TEMP:  24; 6HR MAX TEMP:  29;

MINNEAPOLIS    CLOUDY    27  16  63 NE7       30.19S WCI  19
6HR MIN TEMP:  27; 6HR MAX TEMP:  28;

$$

  *****  WEATHER ACROSS SOUTH DAKOTA  *****

CITY           SKY/WX    TMP DP  RH WIND       PRES   REMARKS
SIOUX FALLS    LGT SNOW  26  23  88 NE17      30.05R VSB 3/4 WCI  13
6HR MIN TEMP:  26; 6HR MAX TEMP:  37; 6HR PCP:  0.07;

BROOKINGS      NOT AVBL
WATERTOWN      CLOUDY    17   8  67 NE20      30.11F WCI   1
6HR MIN TEMP:  17; 6HR MAX TEMP:  18; 6HR PCP: TRACE;

HURON          CLOUDY    20  16  84 NE16      30.13R WCI   6
6HR MIN TEMP:  20; 6HR MAX TEMP:  22;

SISSETON         N/A     14   2  58 N24       30.23F WCI  -5
ABERDEEN       CLOUDY    13   1  59 NE21      30.23R WCI  -5
6HR MIN TEMP:  13; 6HR MAX TEMP:  19;

MITCHELL       FRZ RAIN  24  22  91 NE18      30.09R FOG     WCI  10
PIERRE         CLOUDY    17   7  64 NE23      30.12S WCI  -1
6HR MIN TEMP:  17; 6HR MAX TEMP:  22;

MOBRIDGE       CLOUDY    17   3  54 NE15G24   30.18R WCI   2
RAPID CITY     FOG       20  19  96 NE12      30.02R VSB<1/4 WCI   8
6HR MIN TEMP:  20; 6HR MAX TEMP:  26; 6HR PCP: TRACE;

$$

  *****  SOME WEATHER IN NEARBY STATES *****

CITY           SKY/WX    TMP DP  RH WIND       PRES   REMARKS
GLASGOW MT     LGT SNOW   9   3  77 NE18      30.35R WCI -10
6HR MIN TEMP:   9; 6HR MAX TEMP:  15; 6HR PCP:  0.03;

GREAT FALLS MT LGT SNOW  10   7  85 NW8       30.31S VSB 1   WCI  -1
6HR MIN TEMP:  11; 6HR MAX TEMP:  16; 6HR PCP:  0.07;

CHEYENNE WY    CLOUDY    33  29  85 N12       29.80R WCI  24
6HR MIN TEMP:  31; 6HR MAX TEMP:  39; 6HR PCP: TRACE;

SCOTTSBLUFF NE CLOUDY    32  28  85 NE5       29.86S
6HR MIN TEMP:  32; 6HR MAX TEMP:  33; 6HR PCP:  0.17;

OMAHA NE       LGT SNOW  33  32  96 SE7       29.97F VSB 1
6HR MIN TEMP:  33; 6HR MAX TEMP:  35; 6HR PCP:  0.20;

DES MOINES IA  LGT SNOW  34  32  92 SE8       30.04F FOG
6HR MIN TEMP:  35; 6HR MAX TEMP:  40; 6HR PCP:  0.23;

DAVENPORT IA   LGT RAIN  33  31  92 S6        30.14F FOG
6HR MIN TEMP:  33; 6HR MAX TEMP:  36; 6HR PCP:  0.08;

CHICAGO IL     CLOUDY    35  27  72 CALM      30.17R
6HR MIN TEMP:  34; 6HR MAX TEMP:  36;

EAU CLAIRE WI  CLOUDY    26  16  65 NE8       30.20R WCI  18
6HR MIN TEMP:  26; 6HR MAX TEMP:  28;

LA CROSSE WI   CLOUDY    31  22  69 NE5       30.17S
6HR MIN TEMP:  30; 6HR MAX TEMP:  33;

$$

  *****  SOME NATIONAL WEATHER *****

CITY           SKY/WX    TMP DP  RH WIND       PRES   REMARKS
LA GUARDIA NY  CLEAR     24   5  44 NW18G28   30.18R WCI  10



USA.gov is the U.S. government's official web portal to all federal, state and local government web resources and services.